Wind_Speed
17 15 14 14 14 14 13 12 11 11 12 13 13 14 12 11 12 12 13 13 13 12 12 12 14 13 11 10 8 6 5 5 5 7 9 12 12 10 11 10 6 4 4
14 15 13 12 12 12 11 10 10 11 13 13 13 13 12 12 12 11 11 11 11 11 13 14 13 12 12 12 11 9 8 7 6 6 5 7 9 10 8 7 6 4 4
14 14 13 11 11 11 11 11 11 12 13 13 13 13 12 11 11 10 10 9 9 11 12 11 11 12 12 12 11 10 10 8 8 6 4 5 5 7 6 5 4 4 6
13 13 12 12 12 11 12 12 12 13 13 13 13 12 11 10 9 9 8 7 8 10 9 10 10 11 10 9 9 8 8 8 7 5 3 2 2 5 6 5 6 7 6
13 13 12 11 11 11 11 11 12 12 12 12 13 12 11 10 8 7 5 5 6 7 8 10 10 12 10 6 6 6 6 6 7 3 0 4 3 5 5 5 6 6 5
12 12 12 11 11 10 11 11 11 12 12 12 13 11 10 9 7 3 3 5 7 8 9 10 11 11 14 10 7 6 4 4 4 2 3 5 6 7 6 5 4 4 5
11 12 11 11 11 11 11 12 11 12 13 13 12 10 10 11 11 9 6 10 10 10 10 10 10 9 10 12 10 7 6 4 4 7 8 7 5 5 4 2 2 3 5
11 12 11 11 12 12 12 12 13 14 14 14 13 13 12 13 15 18 20 17 14 11 10 9 8 8 8 8 8 6 6 6 5 4 9 7 6 4 3 2 1 3 4
11 11 12 12 12 12 12 14 15 15 14 12 11 11 12 14 17 21 21 19 15 12 10 9 8 7 8 7 5 6 5 4 7 6 5 3 4 1 2 2 3 5 5
10 12 13 13 14 14 14 15 15 14 11 9 11 12 14 16 16 19 18 15 13 12 10 9 7 7 6 6 3 5 6 3 4 9 2 2 2 2 4 6 8 9 9
12 13 13 14 15 16 19 19 17 14 11 11 15 15 15 16 16 17 16 13 12 11 9 8 8 6 6 3 4 9 8 5 3 0 5 4 4 8 6 10 11 12 13
11 15 17 16 19 23 23 19 16 16 17 17 20 16 16 16 17 13 14 13 13 12 6 4 6 3 2 3 4 4 9 4 2 1 11 4 11 11 13 17 14 15 15
14 17 19 20 22 21 22 20 17 22 17 19 15 14 16 14 10 13 9 12 10 11 9 6 4 3 3 9 8 6 10 9 6 9 10 8 13 15 15 16 16 15 15
15 17 19 20 19 20 25 20 18 19 18 21 19 17 13 11 12 12 10 9 13 14 8 8 6 2 9 9 10 15 13 16 18 12 13 9 11 12 9 8 9 12 14
17 19 18 17 14 21 19 18 19 17 21 21 15 15 11 10 10 12 12 13 14 11 11 6 7 7 10 10 6 9 17 21 20 19 12 12 9 12 10 11 9 8 9
17 18 16 14 11 19 16 22 18 16 15 17 17 15 15 10 10 8 9 12 13 12 13 11 7 6 6 3 6 13 14 17 17 17 16 20 20 18 14 14 10 8 8
15 16 15 15 11 14 14 20 16 18 16 15 15 17 13 9 9 6 10 11 12 11 13 13 14 11 9 6 7 11 10 13 19 18 19 20 21 22 24 18 12 12 11
12 13 15 14 13 12 11 10 7 13 16 15 15 16 13 11 9 11 10 13 12 13 13 13 12 9 10 7 6 9 7 10 18 16 20 22 23 24 24 25 16 13 13
10 13 13 15 14 11 11 7 11 14 15 14 13 15 13 10 4 9 9 12 11 10 12 15 14 14 8 13 12 8 9 13 12 17 22 23 22 25 23 23 21 21 21
11 14 14 14 15 13 13 10 9 9 11 12 12 12 10 7 7 9 11 10 12 12 14 15 16 18 18 16 13 10 11 12 16 18 23 27 28 27 26 25 22 23 24
12 13 15 15 14 14 11 11 10 10 12 10 11 11 9 10 8 12 14 14 13 12 11 16 18 18 17 16 16 13 13 14 19 22 26 27 28 27 27 27 27 25 29
10 13 17 17 17 15 14 12 11 9 11 11 11 11 9 7 7 9 12 13 14 16 17 18 20 18 17 15 15 16 15 17 21 23 25 27 28 29 29 27 26 27 31
11 11 14 17 18 18 16 15 12 9 11 9 10 9 6 7 6 8 11 13 15 16 16 16 17 17 18 18 15 16 16 17 20 21 23 26 28 29 30 29 27 25 24
11 12 14 16 18 18 18 15 13 11 12 10 7 7 5 6 6 7 10 11 12 13 16 17 20 20 18 18 19 18 16 15 15 18 21 24 27 27 28 29 27 27 18
14 13 12 14 16 18 17 16 14 13 12 9 8 5 5 5 5 7 8 9 9 11 13 16 20 21 20 19 18 19 20 20 20 20 21 22 24 27 27 28 22 26 21
14 15 15 13 12 14 15 16 15 14 14 12 8 6 3 3 2 4 6 8 10 11 13 12 17 20 21 23 22 21 19 20 20 18 19 23 27 25 25 23 23 20 19
Wind_Direction
124 121 122 126 132 123 118 118 119 117 111 109 108 100 99 99 98 98 95 93 83 80 76 75 71 70 71 69 69 69 83 83 67 92 110 124 130 141 143 141 135 136 127
119 118 122 125 122 116 118 118 121 118 110 109 102 101 106 102 101 93 93 97 88 87 77 71 72 70 67 66 63 57 63 78 89 92 101 118 128 129 136 137 144 148 154
125 124 124 123 119 119 117 120 114 105 101 99 102 105 105 101 100 103 100 99 98 81 76 69 63 61 56 59 65 66 63 63 68 72 78 93 89 107 118 139 147 155 186
129 130 129 128 127 124 121 115 104 100 102 106 103 98 94 92 90 90 91 93 93 89 84 75 67 60 59 63 70 81 82 74 65 66 92 69 115 129 133 144 170 177 184
131 133 133 129 123 122 123 117 109 105 102 98 93 88 83 79 76 72 80 95 100 104 90 85 79 69 51 57 84 80 63 53 46 48 170 154 156 165 145 158 170 177 188
129 135 131 126 124 126 125 117 112 109 103 97 90 86 83 75 65 66 138 142 126 113 92 84 82 65 54 71 95 69 53 38 14 4 197 175 156 155 170 180 186 182 201
138 136 132 132 129 130 124 114 112 107 102 96 94 95 86 75 70 65 100 130 121 108 96 83 80 67 72 68 77 73 63 69 87 69 109 151 160 167 143 163 230 229 232
132 127 129 129 129 129 123 118 117 112 109 103 93 89 87 85 80 87 98 109 111 106 101 99 89 76 70 63 66 68 82 91 101 88 124 138 153 148 126 128 239 262 263
118 124 129 128 129 125 123 123 121 119 117 108 107 104 93 90 95 97 104 110 110 109 107 105 100 87 78 65 67 85 103 57 112 112 163 163 183 91 328 313 290 275 261
122 127 129 133 130 125 124 126 122 119 108 98 72 70 91 98 102 101 105 108 109 107 99 90 91 78 73 68 57 30 2 332 160 142 125 169 11 298 298 304 298 277 266
130 128 130 129 124 121 121 119 118 109 89 80 82 93 100 100 101 96 88 86 87 78 79 84 78 67 72 58 347 21 5 328 304 356 322 262 320 303 287 290 286 284 273
128 132 130 127 121 121 118 118 113 100 94 105 96 102 90 104 94 86 92 83 92 76 86 75 81 61 164 355 343 359 3 351 215 304 326 287 306 295 297 287 290 278 272
135 131 131 132 127 125 122 116 104 103 83 92 106 81 99 98 98 114 78 91 92 70 83 78 85 74 23 42 28 34 20 356 316 313 315 313 310 302 292 291 289 276 270
139 137 146 144 135 130 123 112 105 97 90 96 92 86 93 97 80 92 98 94 85 76 64 74 65 84 1 354 23 7 21 30 25 2 2 326 328 308 299 290 279 265 258
147 143 152 143 142 136 129 125 121 106 93 92 100 114 107 93 110 95 91 88 71 69 53 55 45 20 9 10 351 15 19 21 25 25 27 3 349 359 356 323 311 292 266
151 142 153 146 117 134 125 133 130 113 94 105 114 102 98 84 76 76 71 68 78 62 44 34 14 354 14 13 17 12 348 354 15 26 18 10 8 4 5 1 340 321 308
151 160 166 151 140 120 123 125 116 124 115 97 100 97 97 56 68 76 71 58 66 55 36 18 15 8 19 53 43 37 3 334 15 13 10 8 358 358 358 6 358 343 337
157 170 174 164 163 143 135 121 112 136 131 113 92 92 100 97 81 80 48 57 61 44 36 30 33 28 14 28 9 1 2 8 5 348 357 357 352 357 358 358 2 355 337
172 178 179 176 177 161 143 135 135 152 125 112 110 111 112 92 59 59 46 53 63 47 38 33 27 28 10 17 21 10 354 15 4 348 346 342 345 349 353 354 358 354 355
187 181 180 183 183 174 158 160 155 159 139 120 107 101 113 99 81 78 62 56 50 40 32 26 33 33 25 21 18 5 347 357 347 339 336 340 342 341 342 345 346 351 346
183 178 187 174 185 177 169 154 162 158 147 139 123 107 89 85 79 69 68 60 50 39 35 34 33 33 29 10 6 3 353 344 345 344 341 336 334 336 338 337 341 344 343
182 177 183 182 181 180 174 179 175 177 160 144 129 119 106 93 77 62 62 52 44 37 32 25 21 25 28 23 7 7 2 355 351 347 339 332 333 331 330 330 335 341 346
191 182 182 187 184 185 187 188 182 189 178 156 133 121 121 118 100 71 59 46 39 34 33 27 24 22 17 19 20 14 8 360 347 340 333 330 329 330 326 321 326 327 324
202 195 190 189 189 193 194 188 185 187 185 179 153 124 113 94 104 75 66 53 40 27 29 28 27 26 23 13 12 14 15 11 353 340 335 328 325 327 318 314 316 334 315
218 207 203 196 191 195 199 194 195 192 194 186 182 171 146 100 97 86 72 61 40 29 19 22 24 22 22 21 14 10 9 8 3 354 339 328 322 328 322 321 306 328 306
219 223 206 206 199 197 197 201 200 204 203 206 211 219 197 147 84 74 64 60 40 23 9 9 21 14 17 15 14 12 9 4 3 355 344 331 332 335 332 320 311 332 314
Height
3174 3175 3177 3178 3179 3179 3180 3181 3182 3183 3183 3184 3185 3185 3185 3186 3185 3184 3184 3184 3184 3185 3184 3184 3182 3182 3182 3181 3181 3181 3182 3183 3184 3184 3186 3187 3188 3190 3189 3190 3191 3192 3193
3175 3176 3178 3179 3180 3180 3181 3183 3184 3185 3185 3186 3187 3187 3188 3187 3186 3186 3187 3187 3187 3187 3186 3184 3185 3185 3184 3184 3183 3182 3183 3184 3185 3185 3185 3187 3187 3188 3188 3189 3190 3191 3192
3177 3178 3179 3180 3181 3182 3183 3185 3186 3186 3186 3186 3187 3188 3187 3187 3188 3188 3188 3188 3189 3187 3187 3188 3187 3186 3186 3185 3185 3184 3184 3184 3185 3186 3186 3186 3186 3186 3187 3188 3190 3190 3192
3179 3180 3181 3182 3183 3184 3186 3187 3188 3188 3189 3189 3189 3189 3189 3189 3189 3189 3189 3189 3189 3189 3190 3191 3190 3189 3189 3187 3187 3187 3187 3187 3187 3187 3187 3187 3188 3188 3188 3188 3189 3189 3190
3181 3182 3184 3185 3186 3187 3188 3189 3190 3190 3190 3190 3190 3190 3190 3190 3189 3190 3190 3190 3190 3192 3193 3193 3192 3192 3191 3189 3189 3189 3188 3189 3188 3188 3188 3189 3189 3190 3189 3189 3189 3189 3189
3183 3184 3185 3186 3187 3189 3190 3191 3191 3191 3192 3192 3193 3192 3191 3190 3190 3190 3190 3191 3192 3193 3194 3194 3194 3193 3192 3190 3190 3189 3189 3187 3188 3188 3188 3188 3189 3188 3189 3189 3189 3189 3188
3185 3185 3186 3187 3188 3189 3190 3191 3192 3193 3193 3194 3193 3192 3192 3192 3191 3189 3189 3191 3194 3195 3195 3195 3195 3194 3193 3192 3191 3190 3189 3187 3189 3187 3188 3189 3189 3189 3188 3189 3190 3190 3190
3186 3187 3187 3188 3189 3191 3192 3192 3193 3195 3195 3195 3195 3194 3193 3193 3192 3191 3191 3193 3195 3196 3196 3196 3196 3195 3194 3193 3191 3190 3189 3188 3186 3186 3188 3190 3190 3189 3189 3189 3190 3190 3190
3188 3188 3189 3190 3191 3192 3193 3194 3195 3196 3197 3196 3195 3194 3195 3194 3194 3193 3193 3194 3196 3197 3197 3197 3197 3197 3196 3194 3192 3191 3190 3190 3188 3188 3188 3188 3189 3188 3188 3187 3188 3188 3188
3189 3191 3192 3192 3193 3194 3195 3195 3197 3198 3198 3198 3198 3198 3197 3195 3196 3196 3196 3196 3196 3198 3198 3198 3197 3197 3196 3195 3193 3193 3192 3192 3188 3187 3187 3187 3187 3187 3186 3186 3185 3185 3185
3191 3192 3194 3194 3195 3195 3196 3197 3198 3199 3199 3200 3199 3198 3198 3198 3199 3198 3198 3200 3199 3200 3199 3198 3197 3197 3196 3195 3194 3193 3192 3191 3191 3189 3188 3187 3185 3184 3183 3182 3181 3182 3182
3193 3194 3195 3196 3197 3196 3197 3198 3199 3200 3200 3199 3200 3200 3201 3201 3201 3201 3201 3201 3200 3199 3199 3199 3197 3197 3196 3195 3194 3194 3192 3191 3190 3187 3186 3184 3183 3182 3181 3180 3178 3179 3178
3196 3196 3197 3198 3199 3199 3199 3200 3201 3202 3202 3202 3202 3201 3203 3203 3204 3201 3202 3203 3202 3201 3199 3199 3198 3198 3196 3194 3193 3192 3190 3189 3188 3185 3182 3181 3180 3178 3177 3175 3174 3174 3174
3198 3199 3200 3201 3202 3201 3201 3202 3202 3204 3204 3204 3203 3203 3204 3205 3204 3203 3204 3204 3203 3202 3200 3199 3198 3197 3195 3193 3191 3191 3189 3187 3185 3183 3180 3179 3177 3176 3174 3173 3171 3170 3169
3200 3201 3203 3203 3203 3204 3203 3202 3204 3205 3204 3204 3204 3205 3204 3205 3206 3205 3204 3203 3203 3202 3201 3199 3197 3194 3193 3190 3191 3189 3187 3185 3183 3181 3179 3178 3177 3175 3171 3169 3166 3164 3163
3200 3203 3205 3206 3207 3206 3205 3204 3205 3204 3205 3206 3206 3206 3207 3209 3209 3207 3206 3204 3202 3202 3201 3199 3198 3195 3193 3191 3188 3187 3185 3185 3183 3181 3179 3175 3172 3171 3170 3167 3164 3161 3160
3201 3203 3206 3207 3208 3208 3208 3207 3205 3207 3208 3208 3207 3209 3209 3209 3209 3209 3208 3206 3203 3202 3200 3198 3196 3193 3192 3191 3189 3185 3186 3185 3182 3180 3177 3175 3173 3168 3164 3164 3161 3158 3156
3201 3203 3205 3208 3209 3209 3210 3210 3209 3210 3209 3209 3209 3210 3209 3211 3211 3210 3208 3206 3204 3202 3200 3199 3196 3194 3192 3191 3190 3187 3186 3185 3182 3181 3178 3175 3171 3167 3163 3159 3158 3155 3152
3201 3203 3206 3208 3209 3210 3211 3211 3211 3212 3211 3211 3212 3211 3211 3211 3211 3210 3208 3207 3206 3204 3201 3198 3196 3195 3192 3191 3190 3188 3184 3183 3183 3180 3177 3175 3170 3166 3163 3158 3154 3150 3147
3202 3202 3204 3207 3209 3210 3212 3212 3213 3213 3212 3212 3213 3211 3212 3213 3213 3212 3209 3208 3207 3205 3201 3199 3197 3195 3193 3191 3190 3188 3185 3182 3181 3179 3176 3171 3167 3164 3159 3156 3152 3148 3144
3200 3202 3204 3206 3209 3210 3212 3213 3214 3214 3214 3213 3214 3213 3213 3213 3213 3213 3211 3209 3208 3206 3204 3200 3198 3196 3194 3191 3188 3186 3184 3181 3180 3177 3171 3167 3163 3159 3155 3152 3149 3145 3141
3200 3201 3203 3205 3208 3210 3212 3214 3215 3215 3216 3216 3216 3215 3215 3215 3214 3213 3211 3210 3209 3207 3204 3201 3199 3197 3195 3192 3189 3186 3183 3182 3178 3174 3169 3163 3160 3156 3151 3149 3146 3142 3139
3199 3201 3202 3204 3206 3208 3211 3212 3214 3215 3217 3217 3217 3217 3217 3217 3216 3214 3212 3210 3209 3208 3205 3204 3201 3198 3195 3193 3190 3187 3183 3181 3175 3170 3166 3162 3157 3153 3149 3144 3140 3140 3135
3199 3200 3202 3203 3205 3208 3210 3212 3214 3215 3216 3217 3218 3218 3218 3217 3216 3215 3214 3212 3210 3209 3207 3205 3202 3199 3196 3193 3189 3186 3183 3180 3175 3170 3166 3160 3154 3151 3146 3140 3137 3135 3131
3198 3200 3203 3204 3205 3207 3210 3212 3214 3215 3217 3217 3218 3218 3219 3218 3217 3216 3215 3213 3212 3210 3209 3206 3203 3200 3197 3194 3190 3186 3181 3177 3174 3170 3164 3160 3153 3147 3143 3138 3135 3132 3128
3198 3199 3201 3204 3205 3207 3209 3212 3213 3215 3216 3217 3218 3218 3218 3219 3218 3216 3216 3214 3213 3211 3210 3207 3204 3200 3197 3193 3189 3186 3182 3177 3173 3169 3164 3157 3152 3147 3140 3136 3132 3128 3126